Location: Bacharowice
(49.9333°N, 19.5833°E)
Time: 10:31:03
(UTC+00:00)

Envisat - Pass Details

Date: 13 October 2022
Orbit: 763 x 765 km, 98.2° (Epoch: 01 December)

Event Time Altitude Azimuth Distance (km) Brightness Sun altitude
Rises 02:43:17 0° 18° (NNE) 3,246 6.7 -22.6°
Reaches altitude 10° 02:45:41 10° 23° (NNE) 2,315 6.0 -22.2°
Maximum altitude 02:50:38 51° 99° (E) 964 3.8 -21.5°
Drops below altitude 10° 02:55:34 10° 175° (S) 2,296 5.4 -20.7°
Sets 02:57:55 0° 181° (S) 3,217 6.1 -20.3°
